Regional Weather Roundup
Issued by NWS State College, PA

Home | Current Version | Previous Version | Text Only | Print | Product List | Glossary Off
Versions: 1 2 3 4 5 6 7 8 9 10 11 12 13 14 15 16 17 18 19 20 21 22 23 24 25 26 27 28 29 30 31 32 33 34 35 36 37 38 39 40 41 42 43 44 45 46 47 48 49 50

000
ASUS41 KCTP 261210
RWRCTP

REGIONAL WEATHER ROUNDUP
NATIONAL WEATHER SERVICE STATE COLLEGE PA
700 AM EST MON JAN 26 2015

Note: "fair" indicates few or no clouds below 12,000 feet with no
significant weather and/or obstructions to visibility.

* = STATION THAT DOES NOT REPORT PRECIPITATION /E.G. RAIN...SNOW...ETC/
    THUNDER OR FOG.

PAZ002>004-007>009-013>016-020>023-029>032-261300-
WESTERN PENNSYLVANIA

CITY           SKY/WX    TMP DP  RH WIND       PRES   REMARKS
ERIE           CLOUDY    18  11  74 NE13      29.84S WCI   5
MEADVILLE      LGT SNOW  18  14  84 NE9       29.74R FOG     WCI   7
FRANKLIN*      CLOUDY    19  14  79 NE8       29.74R WCI   9
NEW CASTLE     LGT SNOW  21  19  93 N7        29.75R FOG     WCI  13
BEAVER COUNTY  LGT SNOW  25  23  93 N3        29.70
BUTLER*        CLOUDY    25  19  80 NE10G16   29.71S WCI  15
PITTSBURGH INT LGT SNOW  28  26  92 NE7       29.68R
PITTSBURGH     CLOUDY    30  26  85 NE6       29.66S
INDIANA*       CLOUDY    25  21  86 E12       29.74S FOG     WCI  14
LATROBE        CLOUDY    32  28  86 E12       29.69R
WASHINGTON CO* CLOUDY    30  28  93 CALM      29.68R
$$

PAZ004>006-010>012-017>019-024>028-033>037-041-042-045-046-049>053-261300-
CENTRAL PENNSYLVANIA

CITY           SKY/WX    TMP DP  RH WIND       PRES   REMARKS
BRADFORD       LGT SNOW  12   6  77 E10       29.74R WCI  -1
DUBOIS         CLOUDY    17  13  84 E14       29.71S FOG     WCI   3
CLEARFIELD     LGT SNOW  16  12  84 NE10      29.78S FOG     WCI   4
JOHNSTOWN      LGT SNOW  22  19  89 E7        29.66S FOG     WCI  13
ALTOONA        LGT SNOW  21  19  92 NE7       29.76S FOG     WCI  12
STATE COLLEGE  LGT SNOW  16  12  86 NE9       29.82S WCI   4
WILLIAMSPORT   LGT SNOW  18  13  80 CALM      29.91S
SELINSGROVE    FLURRIES  20  15  81 NE7       29.90R WCI  11
FT INDIANTOWN  CLOUDY    22  17  81 E13       29.88S WCI  10
CAPITAL CITY   CLOUDY    24  19  81 E10       29.87S WCI  14
HARRISBURG     FLURRIES  24  20  84 NE8       29.87S
YORK           CLOUDY    27  23  85 E12       29.84S
$$

PAZ038>040-043-044-047-048-054-055-060>062-067>071-261300-
EASTERN PENNSYLVANIA

CITY           SKY/WX    TMP DP  RH WIND       PRES   REMARKS
SCRANTON       LGT SNOW  18  12  77 NE10      29.89S WCI   6
MOUNT POCONO   LGT SNOW  12   8  84 E14G22    29.83R FOG     WCI  -3
ALLENTOWN      LGT SNOW  19  14  79 NE16      29.94S WCI   5
QUAKERTOWN*    NOT AVBL
READING        CLOUDY    21  17  84 N9        29.89F WCI  11
LANCASTER      CLOUDY    25  20  81 E14       29.86F WCI  13
COATESVILLE    CLOUDY    27  25  93 E15G25    29.86S WCI  15
POTTSTOWN      CLOUDY    22  17  81 E12G20    29.93R WCI  10
BLUE BELL      CLOUDY    27  21  80 E10       29.91S
DOYLESTOWN     CLOUDY    20  17  88 NE7       29.92S WCI  11
WILLOW GROVE   NOT AVBL
NORTH PHILA    FLURRIES  28  19  69 E14       29.95R
PHILADELPHIA   FLURRIES  30  21  69 E13G24    29.92R
$$


USA.gov is the U.S. government's official web portal to all federal, state and local government web resources and services.